Time,TemperatureF,DewpointF,PressureIn,WindDirection,WindDirectionDegrees,WindSpeedMPH,WindSpeedGustMPH,Humidity,HourlyPrecipIn,Conditions,Clouds,dailyrainin,SoftwareType,DateUTC
2013-02-06 00:00:00,42.3,40.5,29.94,ENE,76,2.0,2.0,93,0.00,,,0.00,meteohub,2013-02-05 23:00:00,
2013-02-06 00:05:00,42.3,40.5,29.94,NE,56,3.0,3.0,93,0.00,,,0.00,meteohub,2013-02-05 23:05:00,
2013-02-06 00:10:00,42.4,40.8,29.95,NE,34,1.0,4.0,94,0.00,,,0.00,meteohub,2013-02-05 23:10:00,
2013-02-06 00:15:00,43.0,41.4,29.95,NNE,26,0.0,4.0,94,0.00,,,0.00,meteohub,2013-02-05 23:15:00,
2013-02-06 00:20:00,43.2,41.4,29.94,ESE,118,0.0,4.0,93,0.00,,,0.00,meteohub,2013-02-05 23:20:00,
2013-02-06 00:25:00,43.2,41.4,29.94,ESE,118,0.0,4.0,93,0.00,,,0.00,meteohub,2013-02-05 23:25:00,
2013-02-06 00:30:00,43.3,41.5,29.94,SSW,200,4.0,4.0,93,0.00,,,0.00,meteohub,2013-02-05 23:30:00,
2013-02-06 00:35:00,43.5,41.4,29.94,SW,215,0.0,7.0,92,0.00,,,0.00,meteohub,2013-02-05 23:35:00,
2013-02-06 00:40:00,43.5,41.4,29.94,SW,215,0.0,7.0,92,0.00,,,0.00,meteohub,2013-02-05 23:40:00,
2013-02-06 00:50:00,43.5,41.4,29.93,West,264,0.0,6.0,92,0.00,,,0.00,meteohub,2013-02-05 23:50:00,
2013-02-06 01:00:00,43.3,40.8,29.92,West,264,0.0,3.0,91,0.00,,,0.00,meteohub,2013-02-06 00:00:00,
2013-02-06 01:05:00,43.2,40.6,29.92,WNW,298,1.0,4.0,91,0.00,,,0.00,meteohub,2013-02-06 00:05:00,
2013-02-06 01:10:00,43.2,40.6,29.92,NNE,23,1.0,4.0,91,0.00,,,0.00,meteohub,2013-02-06 00:10:00,
2013-02-06 01:20:00,42.6,40.1,29.91,NE,47,1.0,5.0,91,0.00,,,0.00,meteohub,2013-02-06 00:20:00,
2013-02-06 01:25:00,42.4,39.9,29.91,NE,46,0.0,5.0,91,0.00,,,0.00,meteohub,2013-02-06 00:25:00,
2013-02-06 01:35:00,42.1,39.6,29.92,NE,46,0.0,1.0,91,0.00,,,0.00,meteohub,2013-02-06 00:35:00,
2013-02-06 01:45:00,41.5,39.2,29.92,NNW,344,0.0,3.0,91,0.00,,,0.00,meteohub,2013-02-06 00:45:00,
2013-02-06 01:50:00,41.2,38.5,29.92,NNW,344,0.0,3.0,90,0.00,,,0.00,meteohub,2013-02-06 00:50:00,
2013-02-06 01:55:00,41.0,38.7,29.92,NNW,344,0.0,3.0,91,0.00,,,0.00,meteohub,2013-02-06 00:55:00,
2013-02-06 02:00:00,40.6,38.3,29.92,NNW,344,0.0,1.0,91,0.00,,,0.00,meteohub,2013-02-06 01:00:00,
2013-02-06 02:05:00,40.5,38.1,29.92,NNW,344,0.0,1.0,91,0.00,,,0.00,meteohub,2013-02-06 01:05:00,
2013-02-06 02:10:00,40.1,37.8,29.91,NNW,344,0.0,1.0,91,0.00,,,0.00,meteohub,2013-02-06 01:10:00,
2013-02-06 02:15:00,39.9,37.8,29.92,NNW,344,0.0,1.0,92,0.00,,,0.00,meteohub,2013-02-06 01:15:00,
2013-02-06 02:20:00,39.7,37.6,29.92,NNW,344,1.0,1.0,92,0.00,,,0.00,meteohub,2013-02-06 01:20:00,
2013-02-06 02:25:00,39.4,37.0,29.92,NNW,344,0.0,1.0,91,0.00,,,0.00,meteohub,2013-02-06 01:25:00,
2013-02-06 02:35:00,38.8,36.7,29.92,NNW,344,0.0,1.0,92,0.00,,,0.00,meteohub,2013-02-06 01:35:00,
2013-02-06 02:40:00,38.7,36.5,29.92,NNW,344,0.0,1.0,92,0.00,,,0.00,meteohub,2013-02-06 01:40:00,
2013-02-06 02:45:00,38.3,36.0,29.92,SW,223,1.0,1.0,91,0.00,,,0.00,meteohub,2013-02-06 01:45:00,
2013-02-06 02:50:00,37.8,35.4,29.92,SW,223,0.0,2.0,91,0.00,,,0.00,meteohub,2013-02-06 01:50:00,
2013-02-06 02:55:00,37.6,35.4,29.92,SW,223,0.0,2.0,92,0.00,,,0.00,meteohub,2013-02-06 01:55:00,
2013-02-06 03:00:00,37.0,34.7,29.92,SW,223,0.0,2.0,91,0.00,,,0.00,meteohub,2013-02-06 02:00:00,
2013-02-06 03:05:00,36.7,34.3,29.91,SW,223,1.0,1.0,91,0.00,,,0.00,meteohub,2013-02-06 02:05:00,
2013-02-06 03:15:00,35.8,33.6,29.90,SSW,205,0.0,4.0,92,0.00,,,0.00,meteohub,2013-02-06 02:15:00,
2013-02-06 03:25:00,35.8,33.6,29.91,SSW,205,0.0,1.0,92,0.00,,,0.00,meteohub,2013-02-06 02:25:00,
2013-02-06 03:30:00,35.4,33.3,29.91,WNW,295,0.0,1.0,92,0.00,,,0.00,meteohub,2013-02-06 02:30:00,
2013-02-06 03:35:00,34.9,32.7,29.90,WNW,295,0.0,4.0,92,0.00,,,0.00,meteohub,2013-02-06 02:35:00,
2013-02-06 03:40:00,34.3,32.2,29.90,WNW,295,0.0,4.0,92,0.00,,,0.00,meteohub,2013-02-06 02:40:00,
2013-02-06 03:45:00,34.2,32.0,29.89,WNW,295,0.0,1.0,92,0.00,,,0.00,meteohub,2013-02-06 02:45:00,
2013-02-06 03:50:00,33.8,32.0,29.89,WNW,297,0.0,1.0,93,0.00,,,0.00,meteohub,2013-02-06 02:50:00,
2013-02-06 03:55:00,33.6,31.8,29.89,WNW,292,4.0,4.0,93,0.00,,,0.00,meteohub,2013-02-06 02:55:00,
2013-02-06 04:00:00,33.4,31.3,29.89,WNW,294,0.0,5.0,92,0.00,,,0.00,meteohub,2013-02-06 03:00:00,
2013-02-06 04:05:00,33.1,31.1,29.89,WNW,294,0.0,5.0,92,0.00,,,0.00,meteohub,2013-02-06 03:05:00,
2013-02-06 04:15:00,32.4,30.4,29.88,WNW,294,0.0,2.0,92,0.00,,,0.00,meteohub,2013-02-06 03:15:00,
2013-02-06 04:20:00,32.2,30.2,29.88,WNW,294,0.0,2.0,92,0.00,,,0.00,meteohub,2013-02-06 03:20:00,
2013-02-06 04:25:00,31.8,29.8,29.88,WNW,294,0.0,1.0,92,0.00,,,0.00,meteohub,2013-02-06 03:25:00,
2013-02-06 04:30:00,31.6,29.8,29.88,WNW,294,0.0,1.0,93,0.00,,,0.00,meteohub,2013-02-06 03:30:00,
2013-02-06 04:35:00,31.5,29.7,29.88,WNW,294,1.0,1.0,93,0.00,,,0.00,meteohub,2013-02-06 03:35:00,
2013-02-06 04:40:00,31.3,29.5,29.88,WNW,294,0.0,2.0,93,0.00,,,0.00,meteohub,2013-02-06 03:40:00,
2013-02-06 04:50:00,30.7,28.9,29.87,NW,305,0.0,4.0,93,0.00,,,0.00,meteohub,2013-02-06 03:50:00,
2013-02-06 04:55:00,30.7,28.9,29.87,NW,305,0.0,4.0,93,0.00,,,0.00,meteohub,2013-02-06 03:55:00,
2013-02-06 05:00:00,30.6,28.8,29.87,NW,305,1.0,4.0,93,0.00,,,0.00,meteohub,2013-02-06 04:00:00,
2013-02-06 05:10:00,30.4,28.6,29.87,NW,304,0.0,2.0,93,0.00,,,0.00,meteohub,2013-02-06 04:10:00,
2013-02-06 05:15:00,30.2,28.4,29.87,NW,304,0.0,2.0,93,0.00,,,0.00,meteohub,2013-02-06 04:15:00,
2013-02-06 05:20:00,30.0,28.6,29.87,NW,305,0.0,2.0,94,0.00,,,0.00,meteohub,2013-02-06 04:20:00,
2013-02-06 05:25:00,30.0,28.6,29.87,NW,305,0.0,2.0,94,0.00,,,0.00,meteohub,2013-02-06 04:25:00,
2013-02-06 05:30:00,30.0,28.6,29.88,NW,305,0.0,2.0,94,0.00,,,0.00,meteohub,2013-02-06 04:30:00,
2013-02-06 05:35:00,29.8,28.0,29.88,NW,305,0.0,1.0,93,0.00,,,0.00,meteohub,2013-02-06 04:35:00,
2013-02-06 05:40:00,29.7,27.9,29.88,NW,305,0.0,1.0,93,0.00,,,0.00,meteohub,2013-02-06 04:40:00,
2013-02-06 05:45:00,29.5,27.7,29.88,NW,305,0.0,1.0,93,0.00,,,0.00,meteohub,2013-02-06 04:45:00,
2013-02-06 05:50:00,29.3,27.5,29.88,NW,307,0.0,1.0,93,0.00,,,0.00,meteohub,2013-02-06 04:50:00,
2013-02-06 05:55:00,28.9,27.1,29.88,NW,307,0.0,4.0,93,0.00,,,0.00,meteohub,2013-02-06 04:55:00,
2013-02-06 06:00:00,28.9,27.5,29.88,NW,320,0.0,4.0,94,0.00,,,0.00,meteohub,2013-02-06 05:00:00,
2013-02-06 06:05:00,28.8,27.3,29.87,NW,320,0.0,1.0,94,0.00,,,0.00,meteohub,2013-02-06 05:05:00,
2013-02-06 06:10:00,28.8,27.0,29.87,NW,320,0.0,1.0,93,0.00,,,0.00,meteohub,2013-02-06 05:10:00,
2013-02-06 06:15:00,28.6,27.1,29.87,NW,320,0.0,2.0,94,0.00,,,0.00,meteohub,2013-02-06 05:15:00,
2013-02-06 06:20:00,28.6,27.1,29.88,NW,320,0.0,2.0,94,0.00,,,0.00,meteohub,2013-02-06 05:20:00,
2013-02-06 06:25:00,28.2,26.8,29.88,NW,320,0.0,2.0,94,0.00,,,0.00,meteohub,2013-02-06 05:25:00,
2013-02-06 06:30:00,28.2,26.8,29.88,NW,320,2.0,2.0,94,0.00,,,0.00,meteohub,2013-02-06 05:30:00,
2013-02-06 06:35:00,28.2,26.8,29.88,ESE,107,0.0,2.0,94,0.00,,,0.00,meteohub,2013-02-06 05:35:00,
2013-02-06 06:40:00,28.0,26.6,29.88,ESE,109,2.0,2.0,94,0.00,,,0.00,meteohub,2013-02-06 05:40:00,
2013-02-06 06:45:00,28.2,26.8,29.88,SSW,200,0.0,4.0,94,0.00,,,0.00,meteohub,2013-02-06 05:45:00,
2013-02-06 06:50:00,28.4,27.1,29.88,NE,40,0.0,5.0,95,0.00,,,0.00,meteohub,2013-02-06 05:50:00,
2013-02-06 06:55:00,28.6,27.3,29.87,SSE,159,0.0,5.0,95,0.00,,,0.00,meteohub,2013-02-06 05:55:00,
2013-02-06 07:00:00,28.8,27.5,29.87,ESE,122,1.0,5.0,95,0.00,,,0.00,meteohub,2013-02-06 06:00:00,
2013-02-06 07:05:00,28.6,27.1,29.88,East,86,2.0,4.0,94,0.00,,,0.00,meteohub,2013-02-06 06:05:00,
2013-02-06 07:10:00,28.6,27.1,29.88,ENE,63,0.0,3.0,94,0.00,,,0.00,meteohub,2013-02-06 06:10:00,
2013-02-06 07:15:00,28.4,27.0,29.88,SSE,148,0.0,4.0,94,0.00,,,0.00,meteohub,2013-02-06 06:15:00,
2013-02-06 07:20:00,28.2,26.8,29.88,SSW,213,0.0,4.0,94,0.00,,,0.00,meteohub,2013-02-06 06:20:00,
2013-02-06 07:25:00,28.6,27.3,29.87,WSW,248,2.0,3.0,95,0.00,,,0.00,meteohub,2013-02-06 06:25:00,
2013-02-06 07:30:00,29.1,27.9,29.88,WSW,244,0.0,5.0,95,0.00,,,0.00,meteohub,2013-02-06 06:30:00,
2013-02-06 07:35:00,29.3,28.0,29.88,WSW,244,0.0,5.0,95,0.00,,,0.00,meteohub,2013-02-06 06:35:00,
2013-02-06 07:40:00,29.3,28.0,29.87,WSW,244,0.0,5.0,95,0.00,,,0.00,meteohub,2013-02-06 06:40:00,
2013-02-06 07:45:00,29.1,27.7,29.87,WSW,244,0.0,4.0,94,0.00,,,0.00,meteohub,2013-02-06 06:45:00,
2013-02-06 07:50:00,28.9,27.5,29.87,WSW,244,0.0,0.0,94,0.00,,,0.00,meteohub,2013-02-06 06:50:00,
2013-02-06 07:55:00,28.8,27.3,29.87,WSW,244,0.0,1.0,94,0.00,,,0.00,meteohub,2013-02-06 06:55:00,
2013-02-06 08:00:00,28.6,27.1,29.87,WSW,244,0.0,1.0,94,0.00,,,0.00,meteohub,2013-02-06 07:00:00,
2013-02-06 08:05:00,28.4,27.0,29.87,WSW,244,1.0,1.0,94,0.00,,,0.00,meteohub,2013-02-06 07:05:00,
2013-02-06 08:10:00,28.2,26.8,29.87,WSW,244,0.0,1.0,94,0.00,,,0.00,meteohub,2013-02-06 07:10:00,
2013-02-06 08:15:00,28.2,27.0,29.88,WSW,244,0.0,1.0,95,0.00,,,0.00,meteohub,2013-02-06 07:15:00,
2013-02-06 08:20:00,28.2,26.8,29.87,WSW,244,0.0,1.0,94,0.00,,,0.00,meteohub,2013-02-06 07:20:00,
2013-02-06 08:25:00,28.2,27.0,29.88,WSW,244,0.0,0.0,95,0.00,,,0.00,meteohub,2013-02-06 07:25:00,
2013-02-06 08:30:00,28.4,27.1,29.88,WSW,244,0.0,1.0,95,0.00,,,0.00,meteohub,2013-02-06 07:30:00,
2013-02-06 08:35:00,28.6,27.3,29.88,West,281,2.0,2.0,95,0.00,,,0.00,meteohub,2013-02-06 07:35:00,
2013-02-06 08:40:00,28.9,27.7,29.88,WNW,289,1.0,3.0,95,0.00,,,0.00,meteohub,2013-02-06 07:40:00,
2013-02-06 08:45:00,29.3,28.2,29.88,WNW,289,0.0,3.0,96,0.00,,,0.00,meteohub,2013-02-06 07:45:00,
2013-02-06 08:50:00,29.7,28.6,29.87,SSW,204,0.0,3.0,96,0.00,,,0.00,meteohub,2013-02-06 07:50:00,
2013-02-06 08:55:00,30.0,28.9,29.87,SSW,204,0.0,2.0,96,0.00,,,0.00,meteohub,2013-02-06 07:55:00,
2013-02-06 09:00:00,30.6,29.5,29.88,SSW,204,0.0,2.0,96,0.00,,,0.00,meteohub,2013-02-06 08:00:00,
2013-02-06 09:05:00,31.3,30.2,29.88,SSW,204,0.0,2.0,96,0.00,,,0.00,meteohub,2013-02-06 08:05:00,
2013-02-06 09:10:00,31.6,30.6,29.88,SSW,204,0.0,1.0,96,0.00,,,0.00,meteohub,2013-02-06 08:10:00,
2013-02-06 09:15:00,31.8,30.7,29.87,SSW,204,1.0,1.0,96,0.01,,,0.01,meteohub,2013-02-06 08:15:00,
2013-02-06 09:25:00,32.4,31.3,29.88,SSW,204,0.0,1.0,96,0.01,,,0.01,meteohub,2013-02-06 08:25:00,
2013-02-06 09:30:00,32.7,31.6,29.88,SSW,204,0.0,1.0,96,0.01,,,0.01,meteohub,2013-02-06 08:30:00,
2013-02-06 09:40:00,34.0,32.9,29.87,SSW,204,0.0,1.0,96,0.01,,,0.01,meteohub,2013-02-06 08:40:00,
2013-02-06 09:50:00,35.2,34.5,29.87,SSW,204,0.0,0.0,97,0.01,,,0.01,meteohub,2013-02-06 08:50:00,
2013-02-06 09:55:00,36.1,35.4,29.86,SSW,200,0.0,2.0,97,0.01,,,0.01,meteohub,2013-02-06 08:55:00,
2013-02-06 10:00:00,36.9,36.1,29.86,SSW,200,0.0,2.0,97,0.01,,,0.01,meteohub,2013-02-06 09:00:00,
2013-02-06 10:05:00,37.4,36.7,29.86,SSW,200,0.0,2.0,97,0.01,,,0.01,meteohub,2013-02-06 09:05:00,
2013-02-06 10:10:00,38.1,37.0,29.86,SSW,200,0.0,1.0,96,0.00,,,0.01,meteohub,2013-02-06 09:10:00,
2013-02-06 10:15:00,38.5,37.4,29.86,SSW,200,0.0,1.0,96,0.00,,,0.01,meteohub,2013-02-06 09:15:00,
2013-02-06 10:20:00,38.7,37.4,29.86,WNW,292,0.0,2.0,95,0.00,,,0.01,meteohub,2013-02-06 09:20:00,
2013-02-06 10:25:00,38.8,37.6,29.86,WNW,292,0.0,2.0,95,0.00,,,0.01,meteohub,2013-02-06 09:25:00,
2013-02-06 10:30:00,39.0,37.8,29.85,WNW,292,0.0,2.0,95,0.00,,,0.01,meteohub,2013-02-06 09:30:00,
2013-02-06 10:35:00,39.6,38.3,29.85,North,5,1.0,2.0,95,0.00,,,0.01,meteohub,2013-02-06 09:35:00,
2013-02-06 10:40:00,40.1,38.8,29.85,North,5,0.0,2.0,95,0.00,,,0.01,meteohub,2013-02-06 09:40:00,
2013-02-06 10:45:00,40.6,39.0,29.85,East,100,0.0,2.0,94,0.00,,,0.01,meteohub,2013-02-06 09:45:00,
2013-02-06 10:50:00,40.8,39.0,29.85,East,100,0.0,2.0,93,0.00,,,0.01,meteohub,2013-02-06 09:50:00,
2013-02-06 10:55:00,41.2,39.0,29.85,SW,217,1.0,2.0,92,0.00,,,0.01,meteohub,2013-02-06 09:55:00,
2013-02-06 11:05:00,41.9,37.4,29.85,SW,229,3.0,7.0,84,0.00,,,0.01,meteohub,2013-02-06 10:05:00,
2013-02-06 11:10:00,42.4,36.7,29.85,South,186,2.0,7.0,80,0.00,,,0.01,meteohub,2013-02-06 10:10:00,
2013-02-06 11:15:00,42.6,36.0,29.85,South,180,3.0,7.0,77,0.00,,,0.01,meteohub,2013-02-06 10:15:00,
2013-02-06 11:20:00,43.0,35.6,29.84,South,184,2.0,6.0,75,0.00,,,0.01,meteohub,2013-02-06 10:20:00,
2013-02-06 11:25:00,43.2,35.1,29.84,SSE,166,1.0,6.0,73,0.00,,,0.01,meteohub,2013-02-06 10:25:00,
2013-02-06 11:30:00,43.3,34.9,29.83,South,183,1.0,6.0,72,0.00,,,0.01,meteohub,2013-02-06 10:30:00,
2013-02-06 11:35:00,43.5,34.7,29.83,SW,223,1.0,6.0,71,0.00,,,0.01,meteohub,2013-02-06 10:35:00,
2013-02-06 11:40:00,43.5,35.8,29.83,SW,221,2.0,5.0,74,0.00,,,0.01,meteohub,2013-02-06 10:40:00,
2013-02-06 11:45:00,43.5,34.0,29.83,SSW,211,5.0,5.0,69,0.00,,,0.01,meteohub,2013-02-06 10:45:00,
2013-02-06 11:50:00,43.9,33.6,29.83,SSW,200,4.0,7.0,67,0.00,,,0.01,meteohub,2013-02-06 10:50:00,
2013-02-06 11:55:00,44.1,33.1,29.83,SSW,207,6.0,7.0,65,0.00,,,0.01,meteohub,2013-02-06 10:55:00,
2013-02-06 12:00:00,44.1,32.7,29.83,West,269,2.0,6.0,64,0.00,,,0.01,meteohub,2013-02-06 11:00:00,
2013-02-06 12:05:00,44.2,32.9,29.82,South,185,2.0,8.0,64,0.00,,,0.01,meteohub,2013-02-06 11:05:00,
2013-02-06 12:10:00,44.4,32.5,29.82,SW,219,2.0,8.0,63,0.00,,,0.01,meteohub,2013-02-06 11:10:00,
2013-02-06 12:15:00,44.8,32.9,29.82,SW,215,1.0,8.0,63,0.00,,,0.01,meteohub,2013-02-06 11:15:00,
2013-02-06 12:20:00,45.0,34.0,29.81,SW,215,0.0,7.0,65,0.00,,,0.01,meteohub,2013-02-06 11:20:00,
2013-02-06 12:25:00,45.5,34.0,29.81,South,184,0.0,4.0,64,0.00,,,0.01,meteohub,2013-02-06 11:25:00,
2013-02-06 12:30:00,46.2,33.1,29.81,South,186,2.0,5.0,60,0.00,,,0.01,meteohub,2013-02-06 11:30:00,
2013-02-06 12:35:00,46.9,33.4,29.81,SW,219,4.0,9.0,59,0.00,,,0.01,meteohub,2013-02-06 11:35:00,
2013-02-06 12:40:00,47.8,32.0,29.81,West,262,4.0,9.0,54,0.00,,,0.01,meteohub,2013-02-06 11:40:00,
2013-02-06 12:45:00,48.7,28.9,29.81,West,275,1.0,9.0,46,0.00,,,0.01,meteohub,2013-02-06 11:45:00,
2013-02-06 12:50:00,49.8,29.8,29.80,WNW,300,9.0,13.0,46,0.00,,,0.01,meteohub,2013-02-06 11:50:00,
2013-02-06 12:55:00,50.5,28.2,29.81,West,275,7.0,14.0,42,0.00,,,0.01,meteohub,2013-02-06 11:55:00,
2013-02-06 13:00:00,51.3,28.4,29.81,NW,309,3.0,15.0,41,0.00,,,0.01,meteohub,2013-02-06 12:00:00,
2013-02-06 13:05:00,51.4,28.6,29.81,WSW,257,0.0,16.0,41,0.00,,,0.01,meteohub,2013-02-06 12:05:00,
2013-02-06 13:10:00,51.3,27.7,29.81,West,267,6.0,16.0,40,0.00,,,0.01,meteohub,2013-02-06 12:10:00,
2013-02-06 13:15:00,50.7,27.3,29.81,WSW,244,5.0,14.0,40,0.00,,,0.01,meteohub,2013-02-06 12:15:00,
2013-02-06 13:20:00,50.5,27.1,29.81,WNW,287,7.0,18.0,40,0.00,,,0.01,meteohub,2013-02-06 12:20:00,
2013-02-06 13:25:00,50.5,28.2,29.81,West,277,5.0,18.0,42,0.00,,,0.01,meteohub,2013-02-06 12:25:00,
2013-02-06 13:30:00,50.7,28.4,29.80,WSW,253,4.0,18.0,42,0.00,,,0.01,meteohub,2013-02-06 12:30:00,
2013-02-06 13:35:00,51.1,29.8,29.80,West,271,8.0,15.0,44,0.00,,,0.01,meteohub,2013-02-06 12:35:00,
2013-02-06 13:40:00,51.3,29.5,29.80,WSW,255,3.0,15.0,43,0.00,,,0.01,meteohub,2013-02-06 12:40:00,
2013-02-06 13:45:00,51.6,29.8,29.80,WNW,291,5.0,15.0,43,0.00,,,0.01,meteohub,2013-02-06 12:45:00,
2013-02-06 13:50:00,52.0,29.7,29.80,WSW,252,0.0,12.0,42,0.00,,,0.01,meteohub,2013-02-06 12:50:00,
2013-02-06 13:55:00,52.0,30.2,29.79,SW,227,10.0,11.0,43,0.00,,,0.01,meteohub,2013-02-06 12:55:00,
2013-02-06 14:00:00,52.3,30.6,29.79,WSW,258,5.0,12.0,43,0.00,,,0.01,meteohub,2013-02-06 13:00:00,
2013-02-06 14:05:00,52.5,30.0,29.78,SW,224,11.0,12.0,42,0.00,,,0.01,meteohub,2013-02-06 13:05:00,
2013-02-06 14:10:00,52.9,30.4,29.78,NW,323,3.0,15.0,42,0.00,,,0.01,meteohub,2013-02-06 13:10:00,
2013-02-06 14:15:00,53.1,29.3,29.78,North,5,7.0,15.0,40,0.00,,,0.01,meteohub,2013-02-06 13:15:00,
2013-02-06 14:20:00,53.1,29.3,29.78,WNW,286,7.0,15.0,40,0.00,,,0.01,meteohub,2013-02-06 13:20:00,
2013-02-06 14:25:00,53.1,28.0,29.78,NE,35,2.0,10.0,38,0.00,,,0.01,meteohub,2013-02-06 13:25:00,
2013-02-06 14:30:00,52.7,28.4,29.78,WSW,250,0.0,10.0,39,0.00,,,0.01,meteohub,2013-02-06 13:30:00,
2013-02-06 14:35:00,52.3,29.3,29.78,WNW,299,3.0,10.0,41,0.00,,,0.01,meteohub,2013-02-06 13:35:00,
2013-02-06 14:40:00,52.2,29.8,29.78,WNW,284,4.0,10.0,42,0.00,,,0.01,meteohub,2013-02-06 13:40:00,
2013-02-06 14:45:00,52.2,29.8,29.78,NW,324,3.0,10.0,42,0.00,,,0.01,meteohub,2013-02-06 13:45:00,
2013-02-06 14:50:00,52.2,29.8,29.78,SSW,196,1.0,10.0,42,0.00,,,0.01,meteohub,2013-02-06 13:50:00,
2013-02-06 14:55:00,52.3,28.8,29.77,West,262,5.0,8.0,40,0.00,,,0.01,meteohub,2013-02-06 13:55:00,
2013-02-06 15:00:00,52.2,29.1,29.77,West,278,5.0,9.0,41,0.00,,,0.01,meteohub,2013-02-06 14:00:00,
2013-02-06 15:05:00,51.8,29.5,29.76,NW,322,1.0,9.0,42,0.00,,,0.01,meteohub,2013-02-06 14:05:00,
2013-02-06 15:10:00,51.8,30.0,29.76,NNW,327,2.0,8.0,43,0.00,,,0.01,meteohub,2013-02-06 14:10:00,
2013-02-06 15:15:00,51.8,30.0,29.77,WSW,258,3.0,8.0,43,0.00,,,0.01,meteohub,2013-02-06 14:15:00,
2013-02-06 15:20:00,51.6,29.8,29.77,WNW,291,4.0,7.0,43,0.00,,,0.01,meteohub,2013-02-06 14:20:00,
2013-02-06 15:25:00,51.1,29.8,29.77,WNW,295,3.0,8.0,44,0.00,,,0.01,meteohub,2013-02-06 14:25:00,
2013-02-06 15:30:00,50.5,29.5,29.77,NW,315,3.0,8.0,44,0.00,,,0.01,meteohub,2013-02-06 14:30:00,
2013-02-06 15:35:00,50.0,30.0,29.76,NW,311,0.0,8.0,46,0.00,,,0.01,meteohub,2013-02-06 14:35:00,
2013-02-06 15:40:00,50.0,30.0,29.76,NW,311,0.0,6.0,46,0.00,,,0.01,meteohub,2013-02-06 14:40:00,
2013-02-06 15:45:00,50.4,30.4,29.76,NW,311,1.0,4.0,46,0.00,,,0.01,meteohub,2013-02-06 14:45:00,
2013-02-06 15:50:00,50.7,30.2,29.76,North,351,0.0,3.0,45,0.00,,,0.01,meteohub,2013-02-06 14:50:00,
2013-02-06 15:55:00,51.3,30.0,29.76,WNW,296,0.0,3.0,44,0.00,,,0.01,meteohub,2013-02-06 14:55:00,
2013-02-06 16:00:00,51.3,30.0,29.77,NW,304,2.0,4.0,44,0.00,,,0.01,meteohub,2013-02-06 15:00:00,
2013-02-06 16:05:00,51.4,30.2,29.77,NW,304,0.0,4.0,44,0.00,,,0.01,meteohub,2013-02-06 15:05:00,
2013-02-06 16:10:00,51.6,29.8,29.77,West,260,1.0,5.0,43,0.00,,,0.01,meteohub,2013-02-06 15:10:00,
2013-02-06 16:15:00,52.0,31.3,29.77,West,260,1.0,5.0,45,0.00,,,0.01,meteohub,2013-02-06 15:15:00,
2013-02-06 16:20:00,52.2,30.4,29.76,West,277,0.0,5.0,43,0.00,,,0.01,meteohub,2013-02-06 15:20:00,
2013-02-06 16:25:00,52.5,30.0,29.76,West,277,0.0,2.0,42,0.00,,,0.01,meteohub,2013-02-06 15:25:00,
2013-02-06 16:30:00,52.9,31.6,29.76,SSW,199,1.0,2.0,44,0.00,,,0.01,meteohub,2013-02-06 15:30:00,
2013-02-06 16:35:00,52.9,31.6,29.76,SSW,198,1.0,4.0,44,0.00,,,0.01,meteohub,2013-02-06 15:35:00,
2013-02-06 16:40:00,52.5,31.3,29.76,SW,230,1.0,4.0,44,0.00,,,0.01,meteohub,2013-02-06 15:40:00,
2013-02-06 16:45:00,51.8,31.1,29.76,SW,217,1.0,4.0,45,0.00,,,0.01,meteohub,2013-02-06 15:45:00,
2013-02-06 16:50:00,51.3,31.6,29.76,SW,217,0.0,4.0,47,0.00,,,0.01,meteohub,2013-02-06 15:50:00,
2013-02-06 16:55:00,51.1,33.1,29.76,SW,217,0.0,4.0,50,0.00,,,0.01,meteohub,2013-02-06 15:55:00,
2013-02-06 17:00:00,50.7,32.7,29.76,SW,217,0.0,4.0,50,0.00,,,0.01,meteohub,2013-02-06 16:00:00,
2013-02-06 17:05:00,51.1,33.1,29.76,SW,217,1.0,2.0,50,0.00,,,0.01,meteohub,2013-02-06 16:05:00,
2013-02-06 17:10:00,51.1,32.5,29.75,SSW,207,1.0,4.0,49,0.00,,,0.01,meteohub,2013-02-06 16:10:00,
2013-02-06 17:15:00,51.4,32.4,29.75,SSW,207,0.0,4.0,48,0.00,,,0.01,meteohub,2013-02-06 16:15:00,
2013-02-06 17:20:00,51.6,31.5,29.76,SSW,207,0.0,4.0,46,0.00,,,0.01,meteohub,2013-02-06 16:20:00,
2013-02-06 17:25:00,51.4,32.9,29.76,NNE,15,2.0,2.0,49,0.00,,,0.01,meteohub,2013-02-06 16:25:00,
2013-02-06 17:30:00,51.1,34.0,29.76,ENE,76,2.0,8.0,52,0.00,,,0.01,meteohub,2013-02-06 16:30:00,
2013-02-06 17:35:00,50.5,34.5,29.76,NE,53,2.0,8.0,54,0.00,,,0.01,meteohub,2013-02-06 16:35:00,
2013-02-06 17:40:00,50.2,34.2,29.76,ENE,76,2.0,8.0,54,0.00,,,0.01,meteohub,2013-02-06 16:40:00,
2013-02-06 17:45:00,49.6,33.6,29.76,East,98,1.0,7.0,54,0.00,,,0.01,meteohub,2013-02-06 16:45:00,
2013-02-06 17:50:00,49.1,33.6,29.77,North,9,4.0,7.0,55,0.00,,,0.01,meteohub,2013-02-06 16:50:00,
2013-02-06 17:55:00,48.7,32.9,29.78,North,0,0.0,5.0,54,0.00,,,0.01,meteohub,2013-02-06 16:55:00,
2013-02-06 18:00:00,48.4,32.9,29.78,NE,55,0.0,5.0,55,0.00,,,0.01,meteohub,2013-02-06 17:00:00,
2013-02-06 18:05:00,48.0,33.1,29.78,NE,55,0.0,5.0,56,0.00,,,0.01,meteohub,2013-02-06 17:05:00,
2013-02-06 18:10:00,47.8,32.5,29.78,NE,55,0.0,5.0,55,0.00,,,0.01,meteohub,2013-02-06 17:10:00,
2013-02-06 18:15:00,47.5,32.2,29.78,NE,55,0.0,1.0,55,0.00,,,0.01,meteohub,2013-02-06 17:15:00,
2013-02-06 18:20:00,46.9,31.6,29.78,NE,55,0.0,1.0,55,0.00,,,0.01,meteohub,2013-02-06 17:20:00,
2013-02-06 18:25:00,46.6,32.2,29.79,NNE,33,0.0,0.0,57,0.00,,,0.01,meteohub,2013-02-06 17:25:00,
2013-02-06 18:30:00,46.0,32.5,29.79,NNE,33,0.0,1.0,59,0.00,,,0.01,meteohub,2013-02-06 17:30:00,
2013-02-06 18:35:00,45.5,33.3,29.79,NNE,33,0.0,1.0,62,0.00,,,0.01,meteohub,2013-02-06 17:35:00,
2013-02-06 18:40:00,45.1,33.6,29.79,NNW,336,0.0,1.0,64,0.00,,,0.01,meteohub,2013-02-06 17:40:00,
2013-02-06 18:45:00,44.8,33.8,29.79,SSW,207,2.0,2.0,65,0.00,,,0.01,meteohub,2013-02-06 17:45:00,
2013-02-06 18:50:00,44.4,33.8,29.79,SSW,207,0.0,2.0,66,0.00,,,0.01,meteohub,2013-02-06 17:50:00,
2013-02-06 18:55:00,44.1,33.8,29.79,SSW,207,0.0,2.0,67,0.00,,,0.01,meteohub,2013-02-06 17:55:00,
2013-02-06 19:00:00,43.5,33.6,29.79,WNW,292,0.0,2.0,68,0.00,,,0.01,meteohub,2013-02-06 18:00:00,
2013-02-06 19:05:00,43.3,33.8,29.79,WNW,292,0.0,2.0,69,0.00,,,0.01,meteohub,2013-02-06 18:05:00,
2013-02-06 19:10:00,42.8,32.9,29.79,WNW,292,1.0,2.0,68,0.00,,,0.01,meteohub,2013-02-06 18:10:00,
2013-02-06 19:15:00,42.4,33.1,29.79,WSW,243,0.0,2.0,69,0.00,,,0.01,meteohub,2013-02-06 18:15:00,
2013-02-06 19:20:00,42.1,32.4,29.80,WSW,243,0.0,2.0,68,0.00,,,0.01,meteohub,2013-02-06 18:20:00,
2013-02-06 19:25:00,41.7,32.7,29.80,WSW,243,0.0,2.0,70,0.00,,,0.01,meteohub,2013-02-06 18:25:00,
2013-02-06 19:30:00,41.2,31.8,29.81,NNW,346,0.0,1.0,69,0.00,,,0.01,meteohub,2013-02-06 18:30:00,
2013-02-06 19:35:00,40.8,29.7,29.81,WSW,244,2.0,4.0,64,0.00,,,0.01,meteohub,2013-02-06 18:35:00,
2013-02-06 19:40:00,41.5,29.1,29.80,SW,235,3.0,4.0,61,0.00,,,0.01,meteohub,2013-02-06 18:40:00,
2013-02-06 19:45:00,41.7,29.3,29.80,SW,225,1.0,4.0,61,0.00,,,0.01,meteohub,2013-02-06 18:45:00,
2013-02-06 19:50:00,41.5,29.5,29.80,SW,225,1.0,5.0,62,0.00,,,0.01,meteohub,2013-02-06 18:50:00,
2013-02-06 19:55:00,41.4,29.7,29.80,SW,225,1.0,5.0,63,0.00,,,0.01,meteohub,2013-02-06 18:55:00,
2013-02-06 20:00:00,40.8,29.7,29.80,SW,225,0.0,5.0,64,0.00,,,0.01,meteohub,2013-02-06 19:00:00,
2013-02-06 20:05:00,40.3,29.5,29.80,SW,225,0.0,3.0,65,0.00,,,0.01,meteohub,2013-02-06 19:05:00,
2013-02-06 20:10:00,39.6,29.5,29.80,SW,225,0.0,3.0,67,0.00,,,0.01,meteohub,2013-02-06 19:10:00,
2013-02-06 20:15:00,39.0,29.3,29.80,SW,225,0.0,3.0,68,0.00,,,0.01,meteohub,2013-02-06 19:15:00,
2013-02-06 20:20:00,38.3,28.9,29.81,SW,225,0.0,2.0,69,0.00,,,0.01,meteohub,2013-02-06 19:20:00,
2013-02-06 20:25:00,37.6,28.8,29.80,SW,225,0.0,0.0,70,0.00,,,0.01,meteohub,2013-02-06 19:25:00,
2013-02-06 20:30:00,36.9,28.4,29.80,SW,225,0.0,0.0,71,0.00,,,0.01,meteohub,2013-02-06 19:30:00,
2013-02-06 20:35:00,36.3,28.6,29.80,SW,225,0.0,1.0,73,0.00,,,0.01,meteohub,2013-02-06 19:35:00,
2013-02-06 20:40:00,35.8,28.0,29.81,SW,225,0.0,1.0,73,0.00,,,0.01,meteohub,2013-02-06 19:40:00,
2013-02-06 20:45:00,35.2,28.0,29.81,SW,225,0.0,1.0,75,0.00,,,0.01,meteohub,2013-02-06 19:45:00,
2013-02-06 20:50:00,34.9,28.0,29.81,WNW,288,2.0,2.0,76,0.00,,,0.01,meteohub,2013-02-06 19:50:00,
2013-02-06 20:55:00,34.3,27.5,29.81,WNW,288,0.0,4.0,76,0.00,,,0.01,meteohub,2013-02-06 19:55:00,
2013-02-06 21:00:00,34.0,27.5,29.82,WNW,288,0.0,4.0,77,0.00,,,0.01,meteohub,2013-02-06 20:00:00,
2013-02-06 21:05:00,33.6,27.5,29.82,WNW,288,0.0,2.0,78,0.00,,,0.01,meteohub,2013-02-06 20:05:00,
2013-02-06 21:10:00,33.4,27.3,29.82,East,81,0.0,1.0,78,0.00,,,0.01,meteohub,2013-02-06 20:10:00,
2013-02-06 21:15:00,33.1,27.3,29.82,East,81,0.0,2.0,79,0.00,,,0.01,meteohub,2013-02-06 20:15:00,
2013-02-06 21:20:00,32.9,27.5,29.82,NNW,343,0.0,2.0,80,0.00,,,0.01,meteohub,2013-02-06 20:20:00,
2013-02-06 21:25:00,33.3,28.0,29.81,ENE,63,0.0,10.0,81,0.00,,,0.01,meteohub,2013-02-06 20:25:00,
2013-02-06 21:30:00,33.4,27.7,29.81,ENE,63,0.0,10.0,79,0.00,,,0.01,meteohub,2013-02-06 20:30:00,
2013-02-06 21:35:00,33.4,27.7,29.83,ENE,63,0.0,10.0,79,0.00,,,0.01,meteohub,2013-02-06 20:35:00,
2013-02-06 21:40:00,33.4,27.3,29.83,ENE,63,0.0,2.0,78,0.00,,,0.01,meteohub,2013-02-06 20:40:00,
2013-02-06 21:45:00,33.6,27.9,29.83,ENE,63,1.0,1.0,79,0.00,,,0.01,meteohub,2013-02-06 20:45:00,
2013-02-06 21:50:00,34.2,28.0,29.83,ENE,63,0.0,2.0,78,0.00,,,0.01,meteohub,2013-02-06 20:50:00,
2013-02-06 21:55:00,34.3,27.9,29.84,West,261,1.0,4.0,77,0.00,,,0.01,meteohub,2013-02-06 20:55:00,
2013-02-06 22:00:00,34.9,28.0,29.84,West,263,4.0,4.0,76,0.00,,,0.01,meteohub,2013-02-06 21:00:00,
2013-02-06 22:05:00,36.0,28.2,29.84,WNW,292,1.0,4.0,73,0.00,,,0.01,meteohub,2013-02-06 21:05:00,
2013-02-06 22:10:00,38.1,27.9,29.83,SW,229,1.0,7.0,66,0.00,,,0.01,meteohub,2013-02-06 21:10:00,
2013-02-06 22:15:00,40.1,27.7,29.83,WSW,254,6.0,9.0,61,0.00,,,0.01,meteohub,2013-02-06 21:15:00,
2013-02-06 22:20:00,41.4,28.0,29.83,West,273,1.0,9.0,59,0.00,,,0.01,meteohub,2013-02-06 21:20:00,
2013-02-06 22:25:00,41.7,27.7,29.84,West,275,1.0,9.0,57,0.00,,,0.01,meteohub,2013-02-06 21:25:00,
2013-02-06 22:30:00,41.7,27.1,29.84,WSW,241,0.0,9.0,56,0.00,,,0.01,meteohub,2013-02-06 21:30:00,
2013-02-06 22:35:00,41.5,27.0,29.84,West,269,5.0,6.0,56,0.00,,,0.01,meteohub,2013-02-06 21:35:00,
2013-02-06 22:40:00,41.7,27.1,29.84,West,269,3.0,7.0,56,0.00,,,0.01,meteohub,2013-02-06 21:40:00,
2013-02-06 22:45:00,41.9,27.0,29.84,WNW,287,4.0,7.0,55,0.00,,,0.01,meteohub,2013-02-06 21:45:00,
2013-02-06 22:50:00,42.4,27.5,29.84,NW,317,2.0,9.0,55,0.00,,,0.01,meteohub,2013-02-06 21:50:00,
2013-02-06 22:55:00,42.6,27.5,29.84,North,5,2.0,9.0,55,0.00,,,0.01,meteohub,2013-02-06 21:55:00,
2013-02-06 23:00:00,42.4,27.5,29.84,North,9,0.0,9.0,55,0.00,,,0.01,meteohub,2013-02-06 22:00:00,
2013-02-06 23:05:00,42.1,27.5,29.84,West,267,4.0,5.0,56,0.00,,,0.01,meteohub,2013-02-06 22:05:00,
2013-02-06 23:10:00,41.7,27.1,29.84,West,263,5.0,5.0,56,0.00,,,0.01,meteohub,2013-02-06 22:10:00,
2013-02-06 23:15:00,41.5,27.0,29.84,SW,227,0.0,6.0,56,0.00,,,0.01,meteohub,2013-02-06 22:15:00,
2013-02-06 23:20:00,41.4,26.8,29.84,WSW,252,4.0,6.0,56,0.00,,,0.01,meteohub,2013-02-06 22:20:00,
2013-02-06 23:25:00,41.2,26.6,29.84,West,271,4.0,7.0,56,0.00,,,0.01,meteohub,2013-02-06 22:25:00,
2013-02-06 23:30:00,41.2,27.1,29.83,WSW,251,4.0,7.0,57,0.00,,,0.01,meteohub,2013-02-06 22:30:00,
2013-02-06 23:35:00,41.0,27.3,29.83,West,265,8.0,10.0,58,0.00,,,0.01,meteohub,2013-02-06 22:35:00,
2013-02-06 23:40:00,41.0,27.3,29.83,WSW,246,9.0,10.0,58,0.00,,,0.01,meteohub,2013-02-06 22:40:00,
2013-02-06 23:45:00,41.4,27.7,29.83,West,274,4.0,11.0,58,0.00,,,0.01,meteohub,2013-02-06 22:45:00,
2013-02-06 23:50:00,41.7,27.7,29.83,West,260,15.0,15.0,57,0.00,,,0.01,meteohub,2013-02-06 22:50:00,
2013-02-06 23:55:00,42.4,27.9,29.83,WNW,299,16.0,18.0,56,0.00,,,0.01,meteohub,2013-02-06 22:55:00,